THORAD AGENA D DEB, 42554

Orbit data source: Space-Track

THORAD AGENA D DEB, 42554 is space debris in SSO originally from a launch on Wed, 08 Apr 1970 UTC launched from the Air Force Western Test Range (AFWTR). Debris objects in space refer to the collection of defunct objects orbiting the Earth. Examples of debris include non-operational satellites, rocket bodies, and fragments generated from explosions, collisions, or faulty payload assembly.

Loading next visibility...
Identifier
42554, 1970-025TL
Orbit
SSO
Country
Flag of USUS
Related business
Manufacturer
Unknown
Mission
Spacecraft
Bus & Motor
Unknown
Mass
Unknown
Launch date (UTC)
1970-04-08 (56 years ago)
Launch vehicle
Unknown
Launch site
Air Force Western Test Range (AFWTR)
Object type
Payload
Rocket body
Debris
Shape & HBR
Unknown shape, 0.1 m
Radar Cross Section
Small (<0.1 m²)

Expand to show TLE details & history
Last TLE update: 3 days ago

TLE from 3 days ago
0 THORAD AGENA D DEB
1 42554U 70025TL  26234.30352674  .00000658  00000-0  66736-3 0  9991
2 42554 100.0705  46.0063 0038599 239.8803 119.8519 13.80923050595038
Epoch: 2026-08-22T07:17Z
TLE epoch observation values (Epoch: 2026-08-22T07:17:04.710Z)
Latitude
-0°
Longitude
-33.87919°
Altitude
977.614 km
Speed
7.356 km/s
True Right ascension
03h 04m 01s
True Declination
0° 00' 00"
Sunlit
Object was in daylight at epoch
Visualization orbit readout
Latitude
Unknown
Longitude
Unknown
Altitude
Unknown
Speed
Unknown
Apparent Right ascension
Unknown
Apparent Declination
Unknown
Sunlit
N/A
Visualization observer readout
Local Sidereal Time
07:58:09
Azimuth
Unknown
Elevation
Unknown
Doppler factor
Unknown
Orbital elements
Apogee altitude
986.211 km
Perigee altitude
929.578 km
Semi-major axis
7,336.031 km
Eccentricity
0.00386
Inclination
100.0705°
RAAN
46.0063°
Arg. of periapsis
239.8803°
True anomaly
120.2346°
Mean anomaly
119.8519°
Eccentric anomaly
120.04334°
Mean motion
3.45423 °/min
Orbital period
104.22 mins
BSTAR
0.00066736

Documentation

Showing up to 5 results
|